TimeCST,TemperatureF,Dew PointF,Humidity,Sea Level PressureIn,VisibilityMPH,Wind Direction,Wind SpeedMPH,Gust SpeedMPH,PrecipitationIn,Events,Conditions,WindDirDegrees,DateUTC
12:15 AM,55.4,53.6,94,29.41,7.0,WSW,5.8,-,N/A,,Overcast,240,2013-11-17 06:15:00
12:35 AM,55.4,53.6,94,29.41,7.0,SSW,9.2,-,N/A,,Overcast,210,2013-11-17 06:35:00
12:55 AM,55.4,53.6,94,29.40,7.0,SSW,8.1,-,N/A,,Overcast,210,2013-11-17 06:55:00
1:15 AM,53.6,53.6,100,29.40,7.0,SSW,6.9,-,N/A,,Overcast,200,2013-11-17 07:15:00
1:35 AM,53.6,53.6,100,29.40,7.0,SSW,6.9,-,N/A,,Mostly Cloudy,210,2013-11-17 07:35:00
1:55 AM,53.6,51.8,94,29.41,7.0,SSW,6.9,-,N/A,,Mostly Cloudy,200,2013-11-17 07:55:00
2:15 AM,53.6,53.6,100,29.41,7.0,SSW,6.9,-,N/A,,Mostly Cloudy,200,2013-11-17 08:15:00
2:35 AM,51.8,51.8,100,29.41,5.0,SSW,4.6,-,N/A,,Scattered Clouds,200,2013-11-17 08:35:00
2:55 AM,51.8,51.8,100,29.41,5.0,SSW,4.6,-,N/A,,Mostly Cloudy,200,2013-11-17 08:55:00
3:15 AM,51.8,51.8,100,29.39,5.0,South,5.8,-,N/A,,Scattered Clouds,190,2013-11-17 09:15:00
3:35 AM,51.8,51.8,100,29.39,5.0,South,5.8,-,N/A,,Mostly Cloudy,180,2013-11-17 09:35:00
3:55 AM,51.8,51.8,100,29.39,4.0,South,3.5,-,N/A,,Scattered Clouds,170,2013-11-17 09:55:00
4:15 AM,50.0,50.0,100,29.39,1.0,South,4.6,-,N/A,,Mist,170,2013-11-17 10:15:00
4:35 AM,50.0,50.0,100,29.40,1.2,South,4.6,-,N/A,,Scattered Clouds,170,2013-11-17 10:35:00
4:55 AM,51.8,51.8,100,29.39,3.0,SSE,6.9,-,N/A,,Mostly Cloudy,160,2013-11-17 10:55:00
5:15 AM,51.8,51.8,100,29.38,4.0,SSE,6.9,-,N/A,,Scattered Clouds,160,2013-11-17 11:15:00
5:35 AM,51.8,51.8,100,29.37,3.0,South,5.8,-,N/A,,Scattered Clouds,170,2013-11-17 11:35:00
5:55 AM,51.8,51.8,100,29.36,3.0,South,5.8,-,N/A,,Mostly Cloudy,170,2013-11-17 11:55:00
6:15 AM,51.8,51.8,100,29.36,2.5,South,5.8,-,N/A,,Overcast,170,2013-11-17 12:15:00
6:35 AM,51.8,51.8,100,29.36,3.0,South,6.9,-,N/A,,Overcast,170,2013-11-17 12:35:00
6:55 AM,51.8,51.8,100,29.36,2.5,South,5.8,-,N/A,,Overcast,170,2013-11-17 12:55:00
7:15 AM,51.8,51.8,100,29.35,2.5,SSE,8.1,-,N/A,,Overcast,160,2013-11-17 13:15:00
7:35 AM,51.8,51.8,100,29.34,5.0,SSE,5.8,-,N/A,,Overcast,160,2013-11-17 13:35:00
7:55 AM,51.8,51.8,100,29.32,4.0,South,4.6,-,N/A,,Overcast,170,2013-11-17 13:55:00
8:35 AM,51.8,51.8,100,29.33,3.0,SSE,4.6,-,N/A,Rain,Rain,160,2013-11-17 14:35:00
8:55 AM,51.8,51.8,100,29.35,4.0,South,6.9,-,0.02,Rain,Light Rain,170,2013-11-17 14:55:00
9:15 AM,51.8,51.8,100,29.33,4.0,South,5.8,-,0.02,Rain,Light Rain,170,2013-11-17 15:15:00
9:35 AM,51.8,51.8,100,29.30,4.0,SE,4.6,-,0.03,Rain,Light Rain,140,2013-11-17 15:35:00
9:55 AM,51.8,51.8,100,29.30,3.0,West,4.6,-,0.05,Rain,Rain,270,2013-11-17 15:55:00
10:15 AM,51.8,51.8,100,29.29,1.2,Calm,Calm,-,0.04,Rain,Rain,0,2013-11-17 16:15:00
10:35 AM,51.8,51.8,100,29.27,1.5,SE,4.6,-,0.10,Rain,Light Rain,130,2013-11-17 16:35:00
10:55 AM,51.8,51.8,100,29.24,1.8,ESE,4.6,-,0.12,Rain,Light Rain,120,2013-11-17 16:55:00
11:15 AM,51.8,51.8,100,29.23,2.5,Calm,Calm,-,N/A,,Light Drizzle,0,2013-11-17 17:15:00
11:35 AM,51.8,51.8,100,29.22,5.0,WNW,4.6,-,N/A,,Overcast,300,2013-11-17 17:35:00
11:55 AM,51.8,51.8,100,29.21,5.0,WNW,5.8,-,N/A,,Overcast,300,2013-11-17 17:55:00
12:15 PM,51.8,51.8,100,29.22,7.0,WNW,10.4,18.4,0.01,Rain,Light Rain,300,2013-11-17 18:15:00
12:35 PM,51.8,51.8,100,29.21,7.0,Calm,Calm,-,0.03,Rain,Rain,0,2013-11-17 18:35:00
12:55 PM,51.8,51.8,100,29.18,10.0,NW,12.7,16.1,0.04,Rain,Light Rain,320,2013-11-17 18:55:00
1:15 PM,50.0,44.6,82,29.19,10.0,NW,13.8,-,N/A,,Overcast,310,2013-11-17 19:15:00
1:35 PM,48.2,42.8,82,29.18,10.0,NW,9.2,-,N/A,,Overcast,320,2013-11-17 19:35:00
1:55 PM,48.2,42.8,82,29.19,10.0,NW,10.4,-,N/A,,Overcast,310,2013-11-17 19:55:00
2:15 PM,48.2,42.8,82,29.19,10.0,NW,10.4,-,N/A,,Overcast,320,2013-11-17 20:15:00
2:35 PM,48.2,42.8,82,29.19,10.0,NW,6.9,-,N/A,,Overcast,310,2013-11-17 20:35:00
2:55 PM,46.4,42.8,87,29.19,10.0,NW,6.9,-,N/A,,Overcast,320,2013-11-17 20:55:00
3:15 PM,46.4,42.8,87,29.19,10.0,NW,11.5,-,N/A,,Drizzle,310,2013-11-17 21:15:00
3:35 PM,44.6,42.8,93,29.20,7.0,WNW,10.4,-,N/A,Rain,Light Rain,300,2013-11-17 21:35:00
3:55 PM,44.6,42.8,93,29.21,7.0,WNW,11.5,-,0.01,Rain,Light Rain,290,2013-11-17 21:55:00
4:15 PM,44.6,42.8,93,29.22,10.0,WNW,15.0,18.4,N/A,,Drizzle,300,2013-11-17 22:15:00
4:35 PM,44.6,42.8,93,29.24,7.0,WNW,15.0,-,0.01,Rain,Light Rain,300,2013-11-17 22:35:00
4:55 PM,44.6,42.8,93,29.26,7.0,WNW,13.8,19.6,0.02,Rain,Light Rain,290,2013-11-17 22:55:00
5:15 PM,44.6,42.8,93,29.28,10.0,WNW,15.0,21.9,0.01,Rain,Light Rain,290,2013-11-17 23:15:00
5:35 PM,44.6,41.0,87,29.29,10.0,WNW,16.1,26.5,0.01,Rain,Light Rain,300,2013-11-17 23:35:00
5:55 PM,44.6,41.0,87,29.30,10.0,WNW,16.1,20.7,0.01,,Light Drizzle,290,2013-11-17 23:55:00
6:15 PM,44.6,41.0,87,29.31,10.0,WNW,21.9,32.2,N/A,,Overcast,290,2013-11-18 00:15:00
6:35 PM,44.6,41.0,87,29.32,10.0,WNW,19.6,28.8,N/A,,Overcast,300,2013-11-18 00:35:00
6:55 PM,42.8,39.2,87,29.34,10.0,WNW,21.9,26.5,N/A,,Overcast,290,2013-11-18 00:55:00
7:15 PM,42.8,37.4,81,29.36,10.0,WNW,23.0,33.4,N/A,,Overcast,300,2013-11-18 01:15:00
7:35 PM,42.8,35.6,76,29.37,10.0,WNW,26.5,34.5,N/A,,Overcast,290,2013-11-18 01:35:00
7:55 PM,42.8,35.6,76,29.39,10.0,WNW,21.9,33.4,N/A,,Overcast,300,2013-11-18 01:55:00
8:15 PM,42.8,33.8,70,29.40,10.0,WNW,21.9,34.5,N/A,,Overcast,300,2013-11-18 02:15:00
8:35 PM,41.0,33.8,76,29.41,10.0,WNW,19.6,27.6,N/A,,Overcast,290,2013-11-18 02:35:00
8:55 PM,41.0,33.8,76,29.42,10.0,West,18.4,34.5,N/A,,Overcast,280,2013-11-18 02:55:00
9:15 PM,41.0,32.0,70,29.43,10.0,WNW,19.6,35.7,N/A,,Overcast,290,2013-11-18 03:15:00
9:35 PM,41.0,32.0,70,29.45,10.0,WNW,27.6,34.5,N/A,,Overcast,300,2013-11-18 03:35:00
9:55 PM,41.0,32.0,70,29.46,10.0,WNW,23.0,32.2,N/A,,Overcast,290,2013-11-18 03:55:00
10:15 PM,41.0,32.0,70,29.47,10.0,WNW,26.5,39.1,N/A,,Mostly Cloudy,290,2013-11-18 04:15:00
10:35 PM,41.0,32.0,70,29.48,10.0,West,17.3,28.8,N/A,,Scattered Clouds,280,2013-11-18 04:35:00
10:55 PM,41.0,32.0,70,29.49,10.0,West,24.2,31.1,N/A,,Overcast,280,2013-11-18 04:55:00
11:15 PM,41.0,30.2,65,29.51,10.0,WNW,27.6,38.0,N/A,,Overcast,300,2013-11-18 05:15:00
11:35 PM,39.2,32.0,75,29.51,10.0,WNW,18.4,32.2,N/A,,Overcast,290,2013-11-18 05:35:00
11:55 PM,39.2,30.2,70,29.52,10.0,West,24.2,33.4,N/A,,Overcast,280,2013-11-18 05:55:00